Location: Champs
(48.8539°N, 2.6040°E)
Time: 17:18:24
(UTC+00:00)

Cosmos 2056 Rocket - Pass Details

Date: 06 June 2022
Orbit: 741 x 801 km, 74.0° (Epoch: 01 July)

Event Time Altitude Azimuth Distance (km) Brightness Sun altitude
Exits shadow 23:49:24 11° 121° (ESE) 2,247 5.6 -18.4°
Maximum altitude 23:51:45 14° 93° (E) 2,039 5.7 -18.4°
Drops below altitude 10° 23:54:29 10° 62° (ENE) 2,342 6.4 -18.4°
Sets 23:57:59 0° 38° (NE) 3,289 7.7 -18.4°
